Tracking 25710 objects as of 6-Jul-2022
HD Live streaming from Space Station
objects crossing your sky now

STARLINK-3890

Track STARLINK-3890 now!
10-day predictions
STARLINK-3890 is classified as:


NORAD ID: 52455
Int'l Code: 2022-049E
Perigee: 546.0 km
Apogee: 547.6 km
Inclination: 53.2 °
Period: 95.4 minutes
Semi major axis: 6917 km
RCS: Unknown
Launch date: May 6, 2022
Source: United States (US)
Launch site: AIR FORCE EASTERN TEST RANGE (AFETR)
aabbcc
Your satellite tracking list
Your tracking list is empty




NASA's NSSDC Master Catalog

Two Line Element Set (TLE):
1 52455U 22049E   22187.25001157 -.00028092  00000-0 -17530-2 0  9990
2 52455  53.2147 335.5512 0001149  71.4866 122.7030 15.08858396  9610
Source of the keplerian elements: AFSPC